Home   Weather   Ganja   Past weeks

Flag for Azerbaijan Past Weather in Ganja, Azerbaijan — Yesterday and Last 2 Weeks

Now
41 °F

Passing clouds.


Feels Like: 33 °F
Forecast: 35 / 49 °F
Wind: 15 mph from West

Location: Gyanca Airport

Current Time: Dec 5, 2016 at 2:43:01 am

Latest Report: Dec 5, 2016 at 2:00 am


Visibility: N/A

Pressure: 30.30 "Hg

Humidity: 57%

Dew Point: 27 °F

Location of GanjaLocation

Past Weather in Ganja — Graph

°F

Ganja Temperature Yesterday

Maximum temperature yesterday: 54 °F (at 4:30 pm)
Minimum temperature yesterday: 37 °F (at 7:30 am)
Average temperature yesterday: 44 °F

High & Low Weather Summary for the Past Weeks

 TemperatureHumidityPressure
High64 °F (Nov 29, 2:30 pm)100% (Nov 20, 9:00 am)30.77 "Hg (Nov 20, 9:00 am)
Low27 °F (Nov 24, 8:30 am)14% (Nov 29, 3:00 pm)29.59 "Hg (Dec 2, 2:30 pm)
Average39 °F70%30.28 "Hg
* Reported Nov 20 1:00 am — Dec 5 1:30 am, Ganja, Weather by CustomWeather, © 2016

Note: Actual official high and low records may vary slightly from our data, if they occured in-between our weather recording intervals... More about our weather records

Advertising

Ganja Weather History for the Previous 24 Hours

Scroll right to see more
 ConditionsComfort  
Time TempWeatherWind HumidityBarometerVisibility
1:30 am
Mon, Dec 5
41 °FPassing clouds.16 mph57%30.30 "HgN/A
1:00 am43 °FPassing clouds.16 mph53%30.30 "HgN/A
12:30 am41 °FPassing clouds.15 mph57%30.30 "HgN/A
12:00 am41 °FPassing clouds.14 mph57%30.30 "HgN/A
11:30 pm
Sun, Dec 4
41 °FPassing clouds.14 mph57%30.30 "HgN/A
11:00 pm43 °FPassing clouds.15 mph53%30.30 "HgN/A
10:30 pm43 °FPassing clouds.16 mph49%30.30 "HgN/A
10:00 pm45 °FPassing clouds.14 mph46%30.27 "HgN/A
9:30 pm43 °FPassing clouds.12 mph49%30.27 "HgN/A
9:00 pm43 °FPassing clouds.10 mph49%30.27 "HgN/A
8:30 pm43 °FPassing clouds.10 mph49%30.27 "HgN/A
8:00 pm45 °FPassing clouds.10 mph46%30.27 "HgN/A
7:30 pm45 °FPassing clouds.12 mph49%30.27 "HgN/A
7:00 pm45 °FPassing clouds.15 mph49%30.27 "HgN/A
6:30 pm45 °FPassing clouds.15 mph49%30.27 "HgN/A
6:00 pm45 °FScattered clouds.15 mph53%30.27 "HgN/A
5:30 pm45 °FScattered clouds.13 mph53%30.24 "HgN/A
5:00 pm48 °FScattered clouds.5 mph34%30.24 "HgN/A
4:30 pm54 °FScattered clouds.No wind24%30.24 "HgN/A
4:00 pm52 °FScattered clouds.No wind28%30.21 "HgN/A
3:30 pm52 °FScattered clouds.2 mph26%30.21 "HgN/A
3:00 pm52 °FScattered clouds.2 mph26%30.24 "HgN/A
2:30 pm52 °FScattered clouds.No wind24%30.24 "HgN/A
2:00 pm52 °FScattered clouds.2 mph26%30.24 "HgN/A
1:30 pm52 °FScattered clouds.7 mph30%30.27 "HgN/A
1:00 pm48 °FScattered clouds.10 mph34%30.27 "HgN/A
12:30 pm48 °FScattered clouds.10 mph34%30.30 "HgN/A
12:00 pm48 °FScattered clouds.12 mph37%30.30 "HgN/A
11:30 am48 °FScattered clouds.14 mph40%30.33 "HgN/A
11:00 am48 °FScattered clouds.10 mph37%30.33 "HgN/A
10:30 am46 °FScattered clouds.10 mph43%30.33 "HgN/A
10:00 am45 °FScattered clouds.9 mph49%30.33 "HgN/A
9:30 am41 °FPassing clouds.9 mph57%30.33 "HgN/A
9:00 am39 °FPassing clouds.10 mph56%30.33 "HgN/A
8:30 am39 °FPassing clouds.9 mph56%30.33 "HgN/A
8:00 am37 °FPassing clouds.10 mph60%30.30 "HgN/A
7:30 am37 °FPassing clouds.8 mph60%30.30 "HgN/A
7:00 am39 °FPassing clouds.10 mph56%30.30 "HgN/A
6:30 am39 °FPassing clouds.12 mph56%30.30 "HgN/A
6:00 am39 °FPassing clouds.10 mph56%30.27 "HgN/A
5:30 am39 °FPassing clouds.14 mph61%30.27 "HgN/A
5:00 am39 °FPassing clouds.13 mph56%30.27 "HgN/A
4:30 am39 °FPassing clouds.15 mph56%30.27 "HgN/A
4:00 am39 °FPassing clouds.14 mph61%30.27 "HgN/A
3:30 am39 °FPassing clouds.10 mph61%30.27 "HgN/A
3:00 am39 °FPassing clouds.16 mph61%30.27 "HgN/A
2:30 am41 °FPassing clouds.18 mph57%30.27 "HgN/A
2:00 am43 °FPassing clouds.16 mph53%30.27 "HgN/A
Weather by CustomWeather, © 2016

See weather overviewHow to use our weather pages